Year,Month,Day,Hour,Minute,Value (Times are PST for temperature in C)
2021,12,01,00,00,11.30
2021,12,01,00,01,11.30
2021,12,01,00,02,11.30
2021,12,01,00,03,11.30
2021,12,01,00,04,11.30
2021,12,01,00,05,11.30
2021,12,01,00,06,11.40
2021,12,01,00,07,11.40
2021,12,01,00,08,11.40
2021,12,01,00,09,11.40
2021,12,01,00,10,11.40
2021,12,01,00,11,11.50
2021,12,01,00,12,11.50
2021,12,01,00,13,11.50
2021,12,01,00,14,11.50
2021,12,01,00,15,11.60
2021,12,01,00,16,11.60
2021,12,01,00,17,11.60
2021,12,01,00,18,11.60
2021,12,01,00,19,11.60
2021,12,01,00,20,11.60
2021,12,01,00,21,11.60
2021,12,01,00,22,11.60
2021,12,01,00,23,11.60
2021,12,01,00,24,11.60
2021,12,01,00,25,11.60
2021,12,01,00,26,11.60
2021,12,01,00,27,11.60
2021,12,01,00,28,11.60
2021,12,01,00,29,11.60
2021,12,01,00,30,11.60
2021,12,01,00,31,11.60
2021,12,01,00,32,11.60
2021,12,01,00,33,11.60
2021,12,01,00,34,11.70
2021,12,01,00,35,11.70
2021,12,01,00,36,11.70
2021,12,01,00,37,11.70
2021,12,01,00,38,11.70
2021,12,01,00,39,11.70
2021,12,01,00,40,11.70
2021,12,01,00,41,11.70
2021,12,01,00,42,11.70
2021,12,01,00,43,11.70
2021,12,01,00,44,11.70
2021,12,01,00,45,11.70
2021,12,01,00,46,11.70
2021,12,01,00,47,11.70
2021,12,01,00,48,11.70
2021,12,01,00,49,11.70
2021,12,01,00,50,11.70
2021,12,01,00,51,11.70
2021,12,01,00,52,11.70
2021,12,01,00,53,11.70
2021,12,01,00,54,11.70
2021,12,01,00,55,11.60
2021,12,01,00,56,11.60
2021,12,01,00,57,11.60
2021,12,01,00,58,11.60
2021,12,01,00,59,11.60
2021,12,01,01,00,11.60
2021,12,01,01,01,11.50
2021,12,01,01,02,11.50
2021,12,01,01,03,11.40
2021,12,01,01,04,11.40
2021,12,01,01,05,11.40
2021,12,01,01,06,11.40
2021,12,01,01,07,11.40
2021,12,01,01,08,11.40
2021,12,01,01,09,11.40
2021,12,01,01,10,11.30
2021,12,01,01,11,11.30
2021,12,01,01,12,11.30
2021,12,01,01,13,11.30
2021,12,01,01,14,11.30
2021,12,01,01,15,11.40
2021,12,01,01,16,11.40
2021,12,01,01,17,11.40
2021,12,01,01,18,11.40
2021,12,01,01,19,11.40
2021,12,01,01,20,11.40
2021,12,01,01,21,11.40
2021,12,01,01,22,11.40
2021,12,01,01,23,11.40
2021,12,01,01,24,11.40
2021,12,01,01,25,11.40
2021,12,01,01,26,11.40
2021,12,01,01,27,11.40
2021,12,01,01,28,11.30
2021,12,01,01,29,11.30
2021,12,01,01,30,11.30
2021,12,01,01,31,11.30
2021,12,01,01,32,11.30
2021,12,01,01,33,11.30
2021,12,01,01,34,11.20
2021,12,01,01,35,11.20
2021,12,01,01,36,11.20
2021,12,01,01,37,11.20
2021,12,01,01,38,11.20
2021,12,01,01,39,11.30
2021,12,01,01,40,11.30
2021,12,01,01,41,11.30
2021,12,01,01,42,11.30
2021,12,01,01,43,11.40
2021,12,01,01,44,11.40
2021,12,01,01,45,11.40
2021,12,01,01,46,11.40
2021,12,01,01,47,11.40
2021,12,01,01,48,11.40
2021,12,01,01,49,11.40
2021,12,01,01,50,11.40
2021,12,01,01,51,11.40
2021,12,01,01,52,11.40
2021,12,01,01,53,11.40
2021,12,01,01,54,11.40
2021,12,01,01,55,11.40
2021,12,01,01,56,11.40
2021,12,01,01,57,11.40
2021,12,01,01,58,11.50
2021,12,01,01,59,11.50
2021,12,01,02,00,11.50
2021,12,01,02,01,11.50
2021,12,01,02,02,11.50
2021,12,01,02,03,11.60
2021,12,01,02,04,11.60
2021,12,01,02,05,11.60
2021,12,01,02,06,11.60
2021,12,01,02,07,11.60
2021,12,01,02,08,11.60
2021,12,01,02,09,11.60
2021,12,01,02,10,11.60
2021,12,01,02,11,11.60
2021,12,01,02,12,11.60
2021,12,01,02,13,11.60
2021,12,01,02,14,11.60
2021,12,01,02,15,11.50
2021,12,01,02,16,11.50
2021,12,01,02,17,11.50
2021,12,01,02,18,11.40
2021,12,01,02,19,11.40
2021,12,01,02,20,11.40
2021,12,01,02,21,11.40
2021,12,01,02,22,11.40
2021,12,01,02,23,11.40
2021,12,01,02,24,11.30
2021,12,01,02,25,11.30
2021,12,01,02,26,11.30
2021,12,01,02,27,11.30
2021,12,01,02,28,11.30
2021,12,01,02,29,11.30
2021,12,01,02,30,11.20
2021,12,01,02,31,11.20
2021,12,01,02,32,11.20
2021,12,01,02,33,11.20
2021,12,01,02,34,11.20
2021,12,01,02,35,11.20
2021,12,01,02,36,11.20
2021,12,01,02,37,11.20
2021,12,01,02,38,11.20
2021,12,01,02,39,11.20
2021,12,01,02,40,11.30
2021,12,01,02,41,11.30
2021,12,01,02,42,11.30
2021,12,01,02,43,11.30
2021,12,01,02,44,11.30
2021,12,01,02,45,11.40
2021,12,01,02,46,11.40
2021,12,01,02,47,11.40
2021,12,01,02,48,11.40
2021,12,01,02,49,11.40
2021,12,01,02,50,11.40
2021,12,01,02,51,11.40
2021,12,01,02,52,11.40
2021,12,01,02,53,11.50
2021,12,01,02,54,11.50
2021,12,01,02,55,11.50
2021,12,01,02,56,11.50
2021,12,01,02,57,11.40
2021,12,01,02,58,11.40
2021,12,01,02,59,11.40
2021,12,01,03,00,11.40
2021,12,01,03,01,11.40
2021,12,01,03,02,11.30
2021,12,01,03,03,11.30
2021,12,01,03,04,11.30
2021,12,01,03,05,11.30
2021,12,01,03,06,11.30
2021,12,01,03,07,11.30
2021,12,01,03,08,11.30
2021,12,01,03,09,11.20
2021,12,01,03,10,11.20
2021,12,01,03,11,11.20
2021,12,01,03,12,11.20
2021,12,01,03,13,11.20
2021,12,01,03,14,11.20
2021,12,01,03,15,11.20
2021,12,01,03,16,11.20
2021,12,01,03,17,11.20
2021,12,01,03,18,11.20
2021,12,01,03,19,11.20
2021,12,01,09,16,15.40
2021,12,01,09,17,15.40
2021,12,01,09,18,15.40
2021,12,01,09,19,15.30
2021,12,01,09,20,15.30
2021,12,01,09,21,15.30
2021,12,01,09,22,15.30
2021,12,01,09,23,15.30
2021,12,01,09,24,15.20
2021,12,01,09,25,15.20
2021,12,01,09,26,15.20
2021,12,01,09,27,15.20
2021,12,01,09,28,15.20
2021,12,01,09,29,15.20
2021,12,01,09,30,15.20
2021,12,01,09,31,15.20
2021,12,01,09,32,15.20
2021,12,01,09,33,15.30
2021,12,01,09,34,15.30
2021,12,01,09,35,15.30
2021,12,01,09,36,15.30
2021,12,01,09,37,15.30
2021,12,01,09,38,15.30
2021,12,01,09,39,15.30
2021,12,01,09,40,15.30
2021,12,01,09,41,15.30
2021,12,01,09,42,15.30
2021,12,01,09,43,15.30
2021,12,01,09,44,15.30
2021,12,01,09,45,15.30
2021,12,01,09,46,15.30
2021,12,01,09,47,15.40
2021,12,01,09,48,15.40
2021,12,01,09,49,15.40
2021,12,01,09,50,15.40
2021,12,01,09,51,15.40
2021,12,01,09,52,15.40
2021,12,01,09,53,15.40
2021,12,01,09,54,15.40
2021,12,01,09,55,15.40
2021,12,01,09,56,15.40
2021,12,01,09,57,15.30
2021,12,01,09,58,15.30
2021,12,01,09,59,15.30
2021,12,01,10,00,15.30
2021,12,01,10,01,15.30
2021,12,01,10,02,15.30
2021,12,01,10,03,15.30
2021,12,01,10,04,15.20
2021,12,01,10,05,15.20
2021,12,01,10,06,15.20
2021,12,01,10,07,15.20
2021,12,01,10,08,15.20
2021,12,01,10,09,15.20
2021,12,01,10,10,15.20
2021,12,01,10,11,15.10
2021,12,01,10,12,15.10
2021,12,01,10,13,15.10
2021,12,01,10,14,15.10
2021,12,01,10,15,15.10
2021,12,01,10,16,15.10
2021,12,01,10,17,15.10
2021,12,01,10,18,15.10
2021,12,01,10,19,15.10
2021,12,01,10,20,15.10
2021,12,01,10,21,15.10
2021,12,01,10,22,15.10
2021,12,01,10,23,15.10
2021,12,01,10,24,15.10
2021,12,01,10,25,15.10
2021,12,01,10,26,15.10
2021,12,01,10,27,15.10
2021,12,01,10,28,15.10
2021,12,01,10,29,15.10
2021,12,01,10,30,15.10
2021,12,01,10,31,15.10
2021,12,01,10,32,15.10
2021,12,01,10,33,15.10
2021,12,01,10,34,15.10
2021,12,01,10,35,15.10
2021,12,01,10,36,15.10
2021,12,01,10,37,15.10
2021,12,01,10,38,15.10
2021,12,01,10,39,15.20
2021,12,01,10,40,15.20
2021,12,01,10,41,15.20
2021,12,01,10,42,15.20
2021,12,01,10,43,15.20
2021,12,01,10,44,15.20
2021,12,01,10,45,15.20
2021,12,01,10,46,15.20
2021,12,01,10,47,15.30
2021,12,01,10,48,15.30
2021,12,01,10,49,15.30
2021,12,01,10,50,15.30
2021,12,01,10,51,15.30
2021,12,01,10,52,15.30
2021,12,01,10,53,15.30
2021,12,01,10,54,15.30
2021,12,01,10,55,15.30
2021,12,01,10,56,15.30
2021,12,01,10,57,15.30
2021,12,01,10,58,15.30
2021,12,01,10,59,15.40
2021,12,01,11,00,15.30
2021,12,01,11,01,15.40
2021,12,01,11,02,15.40
2021,12,01,11,03,15.40
2021,12,01,11,04,15.40
2021,12,01,11,05,15.40
2021,12,01,11,06,15.50
2021,12,01,11,07,15.50
2021,12,01,11,08,15.60
2021,12,01,11,09,15.60
2021,12,01,11,10,15.60
2021,12,01,11,11,15.70
2021,12,01,11,12,15.70
2021,12,01,11,13,15.80
2021,12,01,11,14,15.80
2021,12,01,11,15,15.90
2021,12,01,11,16,15.90
2021,12,01,11,17,16.00
2021,12,01,11,18,16.10
2021,12,01,11,19,16.10
2021,12,01,11,20,16.20
2021,12,01,11,21,16.20
2021,12,01,11,22,16.30
2021,12,01,11,23,16.30
2021,12,01,11,24,16.30
2021,12,01,11,25,16.30
2021,12,01,11,26,16.40
2021,12,01,11,27,16.40
2021,12,01,11,28,16.50
2021,12,01,11,29,16.50
2021,12,01,11,30,16.50
2021,12,01,11,31,16.50
2021,12,01,11,32,16.50
2021,12,01,11,33,16.50
2021,12,01,11,34,16.60
2021,12,01,11,35,16.60
2021,12,01,11,36,16.60
2021,12,01,11,37,16.60
2021,12,01,11,38,16.70
2021,12,01,11,39,16.70
2021,12,01,11,40,16.70
2021,12,01,11,41,16.70
2021,12,01,11,42,16.70
2021,12,01,11,43,16.70
2021,12,01,11,44,16.70
2021,12,01,11,45,16.60
